March 6, 2015
Temp
 
69.0 °F
 
Dew Pt.
 
37.1 °F
 
Humidity
 
31%
 
Pressure
 
1020.8 hPa 
  steady
Wind
 
0.0 mph 
    ESE
Rain
 
0.00 in 
  0.00 in/hr
UV index
 
1.3  
 
Solar rad.
 
617 W/m²
 
Today

Breezy
Breezy
Tonight

Mostly Clear
Mostly
Clear
Hi 83 °F Lo 50 °F
Statistics - 3/06/2015
Max Temp 68.6 °F  9:25 am
Min Temp 49.8 °F  6:35 am
Max Dew Pt 36.9 °F  8:05 am
Min Dew Pt 26.2 °F  4:00 am
Max Pressure 1021.2 hPa  12:10 am
Min Pressure 1020.0 hPa  4:40 am
Max Wind 6 mph  2:25 am
Max UV 1.2   9:25 am
Max Solar 606 W/m²  9:25 am
Max Rainfall Rate —   —
Total Precipitation —   
Current Temp 68.5 °F  9:25 am
Temp 24hr ago 63.8 °F  9:25 am
Difference +4.7 °F  
Temp Rate +1.4 °F/hr  
Pressure Rate -0.4 hPa/hr  
time temp dew pt pressure uv solar wind wind speed rainfall rate
00:00 53.4 °F 30.9 °F 1021.2 hPa  Calm    
00:05 53.3 °F 30.2 °F 1021.2 hPa  NNW 4 mph   
00:10 53.2 °F 30.1 °F 1021.2 hPa  Calm    
00:15 53.1 °F 30.6 °F 1021.2 hPa  Calm    
00:20 53.0 °F 31.1 °F 1021.1 hPa  Calm    
00:25 52.9 °F 31.0 °F 1021.0 hPa  NNW 1 mph   
00:30 52.8 °F 30.3 °F 1021.0 hPa  Calm    
00:35 52.6 °F 30.2 °F 1020.9 hPa  NNW 1 mph   
00:40 52.5 °F 30.7 °F 1021.0 hPa  Calm    
00:45 52.4 °F 30.6 °F 1020.9 hPa  NNW 1 mph   
00:50 52.3 °F 30.5 °F 1020.9 hPa  E 2 mph   
00:55 52.2 °F 30.4 °F 1021.0 hPa  Calm    
01:00 52.1 °F 29.1 °F 1020.9 hPa  ENE 3 mph   
01:05 52.1 °F 29.7 °F 1021.0 hPa  Calm    
01:10 52.0 °F 29.6 °F 1021.0 hPa  Calm    
01:15 51.9 °F 30.1 °F 1021.0 hPa  NNE 1 mph   
01:20 51.5 °F 29.8 °F 1021.0 hPa  NNE 2 mph   
01:25 51.4 °F 30.2 °F 1020.9 hPa  NNE 3 mph   
01:30 51.9 °F 28.9 °F 1020.9 hPa  NNW 4 mph   
01:35 52.0 °F 29.6 °F 1020.8 hPa  Calm    
01:40 51.4 °F 29.1 °F 1020.8 hPa  NNW 3 mph   
01:45 51.9 °F 28.3 °F 1020.8 hPa  NNW 2 mph   
01:50 52.2 °F 29.8 °F 1020.7 hPa  NNW 1 mph   
01:55 51.9 °F 28.9 °F 1020.7 hPa  NNW 1 mph   
02:00 51.9 °F 28.3 °F 1020.7 hPa  Calm    
02:05 51.9 °F 28.3 °F 1020.7 hPa  Calm    
02:10 51.5 °F 27.4 °F 1020.6 hPa  Calm    
02:15 51.8 °F 28.3 °F 1020.6 hPa  NNW 3 mph   
02:20 52.3 °F 27.5 °F 1020.6 hPa  NNW 3 mph   
02:25 52.9 °F 27.3 °F 1020.5 hPa  NW 6 mph   
02:30 53.0 °F 27.4 °F 1020.5 hPa  NNW 4 mph   
02:35 53.6 °F 27.3 °F 1020.4 hPa  NW 5 mph   
02:40 53.6 °F 27.3 °F 1020.4 hPa  NNW 4 mph   
02:45 53.3 °F 27.7 °F 1020.4 hPa  NNW 4 mph   
02:50 53.0 °F 27.4 °F 1020.3 hPa  NNW 2 mph   
02:55 52.8 °F 27.9 °F 1020.4 hPa  Calm    
03:00 52.7 °F 27.8 °F 1020.4 hPa  NNW 1 mph   
03:05 52.8 °F 27.9 °F 1020.3 hPa  NNW 3 mph   
03:10 52.8 °F 27.3 °F 1020.1 hPa  NNW 3 mph   
03:15 52.9 °F 27.3 °F 1020.1 hPa  NNW 1 mph   
03:20 52.3 °F 27.5 °F 1020.1 hPa  Calm    
03:25 52.0 °F 27.8 °F 1020.1 hPa  Calm    
03:30 51.7 °F 28.2 °F 1020.0 hPa  Calm    
03:35 51.7 °F 27.6 °F 1020.1 hPa  NNW 2 mph   
03:40 52.1 °F 26.6 °F 1020.0 hPa  NNW 2 mph   
03:45 52.0 °F 27.2 °F 1020.0 hPa  Calm    
03:50 52.1 °F 26.6 °F 1020.0 hPa  NNW 2 mph   
03:55 51.9 °F 27.1 °F 1020.0 hPa  NNW 2 mph   
04:00 52.4 °F 26.2 °F 1020.0 hPa  NNW 3 mph   
04:05 52.4 °F 26.9 °F 1020.0 hPa  Calm    
04:10 51.8 °F 27.0 °F 1020.0 hPa  Calm    
04:15 51.4 °F 28.5 °F 1020.1 hPa  Calm    
04:20 50.7 °F 27.3 °F 1020.0 hPa  NNW 2 mph   
04:25 51.3 °F 27.2 °F 1020.0 hPa  NNW 3 mph   
04:30 50.8 °F 27.4 °F 1020.0 hPa  NNW 5 mph   
04:35 51.3 °F 27.2 °F 1020.0 hPa  ENE 4 mph   
04:40 51.0 °F 27.5 °F 1020.0 hPa  Calm    
04:45 51.2 °F 27.1 °F 1020.1 hPa  NNW 2 mph   
04:50 51.4 °F 27.3 °F 1020.2 hPa  NW 3 mph   
04:55 50.8 °F 27.4 °F 1020.3 hPa  Calm    
05:00 50.6 °F 27.8 °F 1020.3 hPa  Calm    
05:05 50.8 °F 27.4 °F 1020.3 hPa  Calm    
05:10 50.8 °F 26.7 °F 1020.3 hPa  Calm    
05:15 50.6 °F 27.2 °F 1020.3 hPa  N 1 mph   
05:20 51.0 °F 26.9 °F 1020.3 hPa  Calm    
05:25 51.1 °F 27.6 °F 1020.4 hPa  Calm    
05:30 50.9 °F 26.8 °F 1020.4 hPa  Calm    
05:35 50.8 °F 27.4 °F 1020.4 hPa  Calm    
05:40 50.4 °F 27.6 °F 1020.4 hPa  Calm    
05:45 50.6 °F 27.2 °F 1020.4 hPa  N 2 mph   
05:50 50.4 °F 28.2 °F 1020.4 hPa  Calm    
05:55 50.2 °F 26.8 °F 1020.4 hPa  Calm    
06:00 50.1 °F 27.3 °F 1020.4 hPa  Calm    
06:05 50.2 °F 27.4 °F 1020.4 hPa  NNW 1 mph   
06:10 50.1 °F 26.7 °F 1020.4 hPa  Calm    
06:15 50.1 °F 26.7 °F 1020.4 hPa  Calm    
06:20 50.1 °F 27.9 °F 1020.4 hPa 3 W/m²  Calm    
06:25 49.9 °F 27.7 °F 1020.4 hPa 7 W/m²  NNW 1 mph   
06:30 49.9 °F 28.3 °F 1020.4 hPa 10 W/m²  NNW 3 mph   
06:35 49.9 °F 28.3 °F 1020.4 hPa 15 W/m²  Calm    
06:40 50.4 °F 29.3 °F 1020.5 hPa 34 W/m²  Calm    
06:45 50.7 °F 30.1 °F 1020.5 hPa 48 W/m²  Calm    
06:50 51.5 °F 29.8 °F 1020.5 hPa 65 W/m²  Calm    
06:55 52.1 °F 30.3 °F 1020.5 hPa 85 W/m²  Calm    
07:00 52.4 °F 31.1 °F 1020.6 hPa 106 W/m²  Calm    
07:05 52.7 °F 31.4 °F 1020.6 hPa 125 W/m²  Calm    
07:10 53.2 °F 31.9 °F 1020.6 hPa 144 W/m²  Calm    
07:15 54.0 °F 32.0 °F 1020.7 hPa 165 W/m²  Calm    
07:20 54.1 °F 33.2 °F 1020.7 hPa 180 W/m²  Calm    
07:25 54.9 °F 32.8 °F 1020.7 hPa 198 W/m²  Calm    
07:30 56.2 °F 32.8 °F 1020.8 hPa 217 W/m²  Calm    
07:35 57.2 °F 34.9 °F 1020.8 hPa 237 W/m²  Calm    
07:40 57.3 °F 36.1 °F 1020.8 hPa 254 W/m²  Calm    
07:45 57.3 °F 36.1 °F 1020.9 hPa 272 W/m²  Calm    
07:50 58.7 °F 34.4 °F 1020.9 hPa 290 W/m²  Calm    
07:55 59.4 °F 33.8 °F 1020.8 hPa 307 W/m²  Calm    
08:00 60.2 °F 34.5 °F 1020.9 hPa 325 W/m²  Calm    
08:05 61.4 °F 36.9 °F 1020.9 hPa 344 W/m²  Calm    
08:10 62.5 °F 35.9 °F 1020.9 hPa 362 W/m²  Calm    
08:15 62.9 °F 36.2 °F 1020.9 hPa 381 W/m²  Calm    
08:20 63.3 °F 35.2 °F 1020.9 hPa 397 W/m²  Calm    
08:25 64.5 °F 36.2 °F 1020.9 hPa 416 W/m²  NE 1 mph   
08:30 65.0 °F 32.8 °F 1020.9 hPa 432 W/m²  Calm    
08:35 65.8 °F 30.9 °F 1020.9 hPa 449 W/m²  Calm    
08:40 66.0 °F 32.0 °F 1020.9 hPa 468 W/m²  Calm    
08:45 66.7 °F 31.7 °F 1021.0 hPa 485 W/m²  ENE 1 mph   
08:50 66.2 °F 33.0 °F 1021.0 hPa 499 W/m²  ENE 1 mph   
08:55 66.4 °F 31.4 °F 1020.9 hPa 0.5 515 W/m²  Calm    
09:00 67.4 °F 33.2 °F 1020.9 hPa 0.6 532 W/m²  Calm    
09:05 68.1 °F 34.6 °F 1021.0 hPa 0.7 545 W/m²  Calm    
09:10 68.0 °F 33.7 °F 1021.0 hPa 0.8 559 W/m²  Calm    
09:15 68.0 °F 34.6 °F 1021.0 hPa 0.9 573 W/m²  Calm    
09:20 68.0 °F 34.6 °F 1020.9 hPa 1.0 589 W/m²  Calm    
09:25 68.5 °F 34.1 °F 1020.8 hPa 1.2 602 W/m²  Calm